Location: Kumla
(59.1265°N, 15.1401°E)
Time: 08:14:26
(UTC+01:00)

A-11 Canister half - Pass Details

Date: 06 December 2023
Orbit: 1526 x 1682 km, 47.3° (Epoch: 04 March)

Event Time Altitude Azimuth Distance (km) Brightness Sun altitude
Rises 18:45:24 0° 213° (SSW) 4,924 12.1 -26.2°
Reaches altitude 10° 18:49:06 10° 203° (SSW) 3,940 11.4 -26.7°
Maximum altitude 18:57:15 29° 148° (SSE) 2,723 10.0 -27.7°
Enters shadow 18:57:47 29° 143° (SE) 2,729 9.9 -27.8°
